This is the latest recevied weather packets stored in our database for station/object KN6WGU. If no packets are shown the sender has not sent any weather packets the latest 10 day(s).
| Time | Temp. | Humidity | Pressure | Rain* | Wind** | Luminosity | Snow |
|---|---|---|---|---|---|---|---|
| 1788136177 | 73° F | 86% | 759.6 mmHg | 0 in | - | 0 W/m² | - |
| 1788135876 | 73° F | 86% | 759.4 mmHg | 0 in | - | 0 W/m² | - |
| 1788135572 | 73° F | 86% | 759.4 mmHg | 0 in | - | 0 W/m² | - |
| 1788135266 | 73° F | 85% | 759.4 mmHg | 0 in | - | 0 W/m² | - |
| 1788134964 | 74° F | 85% | 759.3 mmHg | 0 in | - | 0 W/m² | - |
| 1788134659 | 74° F | 84% | 759.2 mmHg | 0 in | - | 1 W/m² | - |
| 1788134357 | 74° F | 84% | 759.2 mmHg | 0 in | - | 1 W/m² | - |
| 1788134053 | 74° F | 84% | 759.2 mmHg | 0 in | - | 1 W/m² | - |
| 1788133748 | 74° F | 83% | 759.3 mmHg | 0 in | - | 2 W/m² | - |
| 1788133443 | 74° F | 83% | 759.1 mmHg | 0 in | - | 2 W/m² | - |
| 1788133140 | 74° F | 82% | 759.4 mmHg | 0 in | - | 3 W/m² | - |
| 1788132839 | 74° F | 82% | 759.2 mmHg | 0 in | - | 5 W/m² | - |
| 1788132535 | 74° F | 81% | 759.3 mmHg | 0 in | - | 4 W/m² | - |
| 1788132231 | 75° F | 81% | 759.3 mmHg | 0 in | - | 3 W/m² | - |
| 1788131927 | 75° F | 81% | 759.2 mmHg | 0 in | - | 3 W/m² | - |
| 1788131622 | 75° F | 80% | 759.3 mmHg | 0 in | - | 4 W/m² | - |
| 1788131316 | 75° F | 79% | 759.1 mmHg | 0 in | - | 10 W/m² | - |
| 1788131012 | 75° F | 79% | 759 mmHg | 0 in | - | 11 W/m² | - |
| 1788130711 | 76° F | 78% | 758.9 mmHg | 0 in | - | 13 W/m² | - |
| 1788130407 | 76° F | 78% | 758.9 mmHg | 0 in | - | 20 W/m² | - |
| 1788130107 | 77° F | 77% | 758.8 mmHg | 0 in | - | 33 W/m² | - |
| 1788129801 | 77° F | 77% | 758.7 mmHg | 0 in | - | 46 W/m² | - |
| 1788129498 | 76° F | 78% | 758.5 mmHg | 0 in | - | 59 W/m² | - |
| 1788129194 | 76° F | 80% | 758.5 mmHg | 0 in | - | 98 W/m² | - |
| 1788128893 | 75° F | 79% | 758.5 mmHg | 0 in | - | 58 W/m² | - |
* Rain latest hour (hover to see other rain measurements)
** Current wind speed in m/s (hover to see current wind gust speed)